Location: Northam
(31.6525°S, 116.6655°E)
Time: 04:57:18
(UTC+08:00)

A-11 Canister half - Visible Passes

Search period start: 14 June 2021 00:00
Search period end: 24 June 2021 00:00
Orbit: 1527 x 1681 km, 47.3° (Epoch: 12 June)

Date Brightness Start Highest point End Pass type
(mag) Time Alt. Az. Time Alt. Az. Time Alt. Az.
14 Jun 9.0 18:55:27 10° SW 19:05:39 85° SE 19:13:40 18° NE visible
14 Jun 10.4 21:02:01 10° WSW 21:09:55 28° NW 21:12:06 25° NW visible
15 Jun 9.0 18:33:45 10° SW 18:43:57 82° SE 18:53:48 10° NE visible
15 Jun 10.4 20:40:09 10° WSW 20:48:19 30° NW 20:53:39 18° N visible
16 Jun 9.1 18:12:02 10° SW 18:22:15 78° SE 18:32:07 10° ENE visible
16 Jun 10.4 20:18:17 10° WSW 20:26:42 32° NW 20:34:54 10° N visible
17 Jun 9.1 17:50:20 10° SW 18:00:33 75° SE 18:10:26 10° ENE visible
17 Jun 10.4 19:56:27 10° WSW 20:05:05 34° NW 20:13:30 10° N visible
18 Jun 9.2 17:28:38 10° SW 17:38:51 72° SE 17:48:44 10° ENE visible
18 Jun 10.3 19:34:37 10° WSW 19:43:28 36° NW 19:52:04 10° N visible
19 Jun 10.3 19:12:48 10° WSW 19:21:51 39° NW 19:30:37 10° NNE visible
20 Jun 10.3 18:51:01 10° WSW 19:00:13 41° NW 19:09:09 10° NNE visible
21 Jun 10.2 18:29:14 10° WSW 18:38:35 44° NW 18:47:41 10° NNE visible
22 Jun 10.2 18:07:27 10° WSW 18:16:57 47° NW 18:26:11 10° NNE visible
23 Jun 10.2 17:45:41 10° WSW 17:55:18 50° NW 18:04:40 10° NNE visible
